Weather History for Westfield, MA

Change the Weather History Date:

Monday, December 3, 2012

  Actual Average Record
Temperature  
Mean Temperature 44 °F -  
Max Temperature 55 °F 41 °F 57 °F (1998)
Min Temperature 30 °F 23 °F 8 °F (2000)
Degree Days  
Heating Degree Days 22    
Moisture  
Dew Point 38 °F    
Average Humidity 82    
Maximum Humidity 93    
Minimum Humidity 53    
Precipitation  
Precipitation 0.01 in - - ()
Sea Level Pressure  
Sea Level Pressure 30.17 in    
Wind  
Wind Speed 4 mph (WSW)    
Max Wind Speed 14 mph    
Max Gust Speed 25 mph    
Visibility 5 miles    
Events Fog    
Averages and records for this station are not official NWS values.
T = Trace of Precipitation, MM = Missing Value Source: NWS Daily Summary

Daily Weather History Graph

Daily Weather History Graph

Search for Another Location

Airport:

Trip Planner

Search our weather history database for the weather conditions in past years. The results will help you decide how hot, cold, wet, or windy it might be!

Date:

Astronomy

Dec. 03, 2012 Rise Set
Actual Time 7:02 AM EST 4:19 PM EST
Civil Twilight 6:30 AM EST 4:50 PM EST
Nautical Twilight 5:56 AM EST 5:25 PM EST
Astronomical Twilight 5:22 AM EST 5:59 PM EST
Moon 9:06 PM EST (12/3) 10:21 AM EST (12/3)
Length of Visible Light 10h 19m
Length of Day
9h 16m
Waning Gibbous, 78% of the Moon is Illuminated
Dec 3
Waning Gibbous
Dec 6
Last Quarter
Dec 13
New
Dec 20
First Quarter
Dec 28
Full

Hourly Weather History & Observations

Time (EST) Temp. Windchill Dew Point Humidity Pressure Visibility Wind Dir Wind Speed Gust Speed Precip Events Conditions
12:53 AM 46.0 °F 43.1 °F 43.0 °F 89% 30.05 in 4.0 mi SSE 5.8 mph - N/A   Mostly Cloudy
1:53 AM 46.0 °F - 43.0 °F 89% 30.06 in 3.0 mi Calm Calm - N/A   Overcast
2:53 AM 46.9 °F - 44.1 °F 90% 30.07 in 4.0 mi South 5.8 mph - N/A   Overcast
3:00 AM 46.4 °F 42.9 °F 44.6 °F 93% 30.06 in 4.0 mi South 6.9 mph - N/A   Overcast
3:26 AM 44.6 °F 40.7 °F 42.8 °F 93% 30.06 in 4.0 mi South 6.9 mph - N/A   Scattered Clouds
3:53 AM 45.0 °F - 41.0 °F 86% 30.07 in 4.0 mi Calm Calm - N/A   Clear
4:53 AM 46.0 °F 43.1 °F 42.1 °F 86% 30.09 in 5.0 mi South 5.8 mph - N/A   Mostly Cloudy
5:48 AM 44.6 °F 41.4 °F 41.0 °F 87% 30.08 in 1.5 mi South 5.8 mph - N/A   Scattered Clouds
5:53 AM 41.0 °F 38.0 °F 39.0 °F 93% 30.10 in 0.5 mi South 4.6 mph - N/A Fog Fog
6:01 AM 42.8 °F 40.1 °F 39.2 °F 87% 30.09 in 0.2 mi SSW 4.6 mph - N/A Fog Fog
6:22 AM 41.0 °F 39.0 °F 39.2 °F 93% 30.10 in 0.2 mi WSW 3.5 mph - N/A Fog Fog
6:31 AM 42.8 °F - 41.0 °F 93% 30.10 in 1.0 mi Calm Calm - N/A   Mist
6:39 AM 39.2 °F - 37.4 °F 93% 30.11 in 0.2 mi Calm Calm - N/A Fog Fog
6:53 AM 39.9 °F - 37.0 °F 89% 30.13 in 0.2 mi Calm Calm - N/A Fog Fog
7:45 AM 42.8 °F 41.1 °F 41.0 °F 93% 30.13 in 0.8 mi SSE 3.5 mph - N/A   Partly Cloudy
7:48 AM 44.6 °F - 41.0 °F 87% 30.14 in 3.0 mi Calm Calm - N/A   Partly Cloudy
7:53 AM 44.1 °F - 41.0 °F 89% 30.15 in 7.0 mi Calm Calm - N/A   Partly Cloudy
8:53 AM 51.1 °F - 39.9 °F 66% 30.17 in 10.0 mi NNW 10.4 mph 20.7 mph N/A   Mostly Cloudy
9:53 AM 51.1 °F - 39.0 °F 63% 30.19 in 10.0 mi NW 11.5 mph 23.0 mph N/A   Mostly Cloudy
10:46 AM 53.6 °F - 39.2 °F 58% 30.18 in 10.0 mi NW 13.8 mph 25.3 mph N/A   Scattered Clouds
10:53 AM 53.1 °F - 39.0 °F 59% 30.19 in 10.0 mi NNW 13.8 mph 23.0 mph N/A   Partly Cloudy
11:53 AM 54.0 °F - 37.9 °F 55% 30.19 in 10.0 mi NW 13.8 mph 24.2 mph 0.01 in   Clear
12:53 PM 55.0 °F - 37.9 °F 53% 30.18 in 10.0 mi NW 13.8 mph - N/A   Clear
1:53 PM 53.1 °F - 37.9 °F 57% 30.18 in 10.0 mi NW 12.7 mph - N/A   Clear
2:53 PM 54.0 °F - 37.9 °F 55% 30.18 in 10.0 mi WNW 9.2 mph - N/A   Clear
3:53 PM 50.0 °F - 37.9 °F 63% 30.20 in 10.0 mi WNW 3.5 mph - N/A   Clear
4:53 PM 45.0 °F - 37.0 °F 74% 30.23 in 10.0 mi Calm Calm - N/A   Clear
5:53 PM 39.9 °F - 36.0 °F 86% 30.26 in 10.0 mi Calm Calm - N/A   Clear
6:53 PM 37.9 °F - 35.1 °F 89% 30.27 in 10.0 mi Calm Calm - N/A   Clear
7:53 PM 36.0 °F - 33.1 °F 89% 30.27 in 8.0 mi Calm Calm - N/A   Clear
8:29 PM 33.8 °F - 32.0 °F 93% 30.26 in 1.8 mi Calm Calm - N/A   Clear
8:39 PM 35.6 °F - 32.0 °F 87% 30.26 in 4.0 mi Calm Calm - N/A   Clear
8:53 PM 35.1 °F - 32.0 °F 89% 30.28 in 7.0 mi Calm Calm - N/A   Clear
9:44 PM 32.0 °F - 30.2 °F 93% 30.27 in 1.8 mi Calm Calm - N/A   Clear
9:53 PM 32.0 °F - 28.9 °F 88% 30.29 in 2.0 mi Calm Calm - N/A   Clear
10:02 PM 33.8 °F - 30.2 °F 87% 30.28 in 5.0 mi Calm Calm - N/A   Clear
10:53 PM 32.0 °F - 28.9 °F 88% 30.30 in 5.0 mi Calm Calm - N/A   Clear
11:53 PM 30.9 °F - 27.0 °F 85% 30.31 in 7.0 mi Calm Calm - N/A   Scattered Clouds